Wetterdaten: Woche 11.11.13 - 17.11.13 (KW46)
Datum Zeit Temperatur Luftfeuchte Luftdruck Niederschlag Windrichtung Sonnenschein Solar Wind
11.11.2013 00:00 2,5 C 95 % 1021,0 hPa 0,0 l/m N-NW 0,00 h 0 W/m 7,9 km/h (2 Bft)
11.11.2013 01:00 2,4 C 95 % 1022,3 hPa 0,0 l/m N-NW 0,00 h 0 W/m 7,6 km/h (2 Bft)
11.11.2013 02:00 2,5 C 95 % 1023,2 hPa 0,0 l/m N-NW 0,00 h 0 W/m 6,4 km/h (2 Bft)
11.11.2013 03:00 2,5 C 95 % 1024,0 hPa 0,0 l/m N-NW 0,00 h 0 W/m 7,2 km/h (2 Bft)
11.11.2013 04:00 2,6 C 95 % 1024,9 hPa 0,0 l/m N-NW 0,00 h 0 W/m 5,5 km/h (1 Bft)
11.11.2013 05:00 2,6 C 95 % 1025,5 hPa 0,0 l/m N-NW 0,00 h 0 W/m 5,9 km/h (2 Bft)
11.11.2013 06:00 2,6 C 95 % 1026,5 hPa 0,0 l/m N-NW 0,00 h 0 W/m 4,1 km/h (1 Bft)
11.11.2013 07:00 2,6 C 95 % 1027,2 hPa 0,2 l/m N 0,00 h 8 W/m 0,4 km/h (0 Bft)
11.11.2013 08:00 2,7 C 95 % 1027,8 hPa 0,0 l/m N 0,00 h 34 W/m 0,3 km/h (0 Bft)
11.11.2013 09:00 3,1 C 95 % 1028,2 hPa 0,0 l/m N 0,00 h 51 W/m 2,8 km/h (1 Bft)
11.11.2013 10:00 3,9 C 93 % 1028,6 hPa 0,0 l/m N-NW 0,00 h 81 W/m 5,9 km/h (2 Bft)
11.11.2013 11:00 4,3 C 91 % 1028,9 hPa 0,0 l/m N-NO 0,00 h 81 W/m 9,1 km/h (2 Bft)
11.11.2013 12:00 4,5 C 89 % 1029,2 hPa 0,0 l/m NO 0,00 h 68 W/m 7,6 km/h (2 Bft)
11.11.2013 13:00 4,5 C 88 % 1029,4 hPa 0,0 l/m O-NO 0,00 h 44 W/m 7,9 km/h (2 Bft)
11.11.2013 14:00 4,5 C 88 % 1029,5 hPa 0,0 l/m O 0,00 h 67 W/m 5,9 km/h (2 Bft)
11.11.2013 15:00 4,7 C 85 % 1029,4 hPa 0,0 l/m O-NO 0,00 h 62 W/m 7,5 km/h (2 Bft)
11.11.2013 16:00 4,5 C 86 % 1029,7 hPa 0,0 l/m O-NO 0,00 h 19 W/m 7,3 km/h (2 Bft)
11.11.2013 17:00 3,9 C 89 % 1030,1 hPa 0,0 l/m O-NO 0,00 h 0 W/m 5,1 km/h (1 Bft)
11.11.2013 18:00 3,4 C 91 % 1030,1 hPa 0,0 l/m O-NO 0,00 h 0 W/m 5,2 km/h (1 Bft)
11.11.2013 19:00 2,6 C 93 % 1029,7 hPa 0,0 l/m O-NO 0,00 h 0 W/m 5,9 km/h (2 Bft)
11.11.2013 20:00 2,1 C 94 % 1029,5 hPa 0,0 l/m O-NO 0,00 h 0 W/m 7,5 km/h (2 Bft)
11.11.2013 21:00 1,7 C 95 % 1029,3 hPa 0,0 l/m O-NO 0,00 h 0 W/m 6,3 km/h (2 Bft)
11.11.2013 22:00 1,4 C 95 % 1028,8 hPa 0,0 l/m O-NO 0,00 h 0 W/m 5,0 km/h (1 Bft)
11.11.2013 23:00 1,0 C 95 % 1028,5 hPa 0,0 l/m O-NO 0,00 h 0 W/m 5,9 km/h (2 Bft)
12.11.2013 00:00 0,5 C 95 % 1028,4 hPa 0,0 l/m O-NO 0,00 h 0 W/m 3,6 km/h (1 Bft)
12.11.2013 01:00 0,3 C 96 % 1028,0 hPa 0,2 l/m NO 0,00 h 0 W/m 6,8 km/h (2 Bft)
12.11.2013 02:00 0,3 C 96 % 1027,6 hPa 0,0 l/m NO 0,00 h 0 W/m 8,3 km/h (2 Bft)
12.11.2013 03:00 0,5 C 97 % 1027,0 hPa 0,0 l/m O-NO 0,00 h 0 W/m 10,6 km/h (2 Bft)
12.11.2013 04:00 0,8 C 96 % 1026,6 hPa 0,0 l/m O-NO 0,00 h 0 W/m 8,2 km/h (2 Bft)
12.11.2013 05:00 1,0 C 96 % 1026,5 hPa 0,0 l/m O-NO 0,00 h 0 W/m 7,3 km/h (2 Bft)
12.11.2013 06:00 1,3 C 95 % 1026,3 hPa 0,0 l/m O-NO 0,00 h 0 W/m 10,2 km/h (2 Bft)
12.11.2013 07:00 1,3 C 94 % 1026,6 hPa 0,0 l/m O-NO 0,00 h 6 W/m 10,2 km/h (2 Bft)
12.11.2013 08:00 1,5 C 93 % 1026,8 hPa 0,0 l/m O-NO 0,00 h 23 W/m 7,9 km/h (2 Bft)
12.11.2013 09:00 1,9 C 91 % 1026,4 hPa 0,0 l/m O 0,00 h 58 W/m 8,6 km/h (2 Bft)
12.11.2013 10:00 2,4 C 88 % 1026,2 hPa 0,0 l/m O 0,00 h 69 W/m 8,3 km/h (2 Bft)
12.11.2013 11:00 2,8 C 86 % 1025,8 hPa 0,0 l/m O-SO 0,00 h 71 W/m 3,7 km/h (1 Bft)
12.11.2013 12:00 3,2 C 85 % 1025,5 hPa 0,0 l/m O-SO 0,00 h 72 W/m 2,8 km/h (1 Bft)
12.11.2013 13:00 3,3 C 83 % 1025,2 hPa 0,0 l/m O 0,00 h 60 W/m 3,2 km/h (1 Bft)
12.11.2013 14:00 3,4 C 84 % 1024,9 hPa 0,0 l/m N 0,00 h 41 W/m 3,3 km/h (1 Bft)
12.11.2013 15:00 3,3 C 85 % 1024,7 hPa 0,0 l/m O 0,00 h 21 W/m 4,4 km/h (1 Bft)
12.11.2013 16:00 3,0 C 85 % 1024,7 hPa 0,0 l/m O-SO 0,00 h 7 W/m 4,8 km/h (1 Bft)
12.11.2013 17:00 2,7 C 85 % 1024,7 hPa 0,0 l/m O-SO 0,00 h 0 W/m 4,0 km/h (1 Bft)
12.11.2013 18:00 2,5 C 86 % 1024,9 hPa 0,0 l/m O-SO 0,00 h 0 W/m 3,9 km/h (1 Bft)
12.11.2013 19:00 2,3 C 87 % 1025,2 hPa 0,0 l/m SO 0,00 h 0 W/m 4,1 km/h (1 Bft)
12.11.2013 20:00 2,1 C 86 % 1025,5 hPa 0,0 l/m W-SW 0,00 h 0 W/m 4,8 km/h (1 Bft)
12.11.2013 21:00 1,9 C 87 % 1025,5 hPa 0,0 l/m W-SW 0,00 h 0 W/m 1,7 km/h (1 Bft)
12.11.2013 22:00 1,9 C 87 % 1025,5 hPa 0,0 l/m W-SW 0,00 h 0 W/m 2,3 km/h (1 Bft)
12.11.2013 23:00 1,8 C 87 % 1025,7 hPa 0,0 l/m N 0,00 h 0 W/m 2,0 km/h (1 Bft)
13.11.2013 00:00 1,7 C 88 % 1026,4 hPa 0,0 l/m W 0,00 h 0 W/m 2,0 km/h (1 Bft)
13.11.2013 01:00 1,6 C 88 % 1027,0 hPa 0,0 l/m N 0,00 h 0 W/m 1,6 km/h (1 Bft)
13.11.2013 02:00 1,6 C 89 % 1027,4 hPa 0,0 l/m N 0,00 h 0 W/m 1,7 km/h (1 Bft)
13.11.2013 03:00 1,6 C 89 % 1027,7 hPa 0,0 l/m N 0,00 h 0 W/m 1,9 km/h (1 Bft)
13.11.2013 04:00 1,6 C 89 % 1028,2 hPa 0,0 l/m N 0,00 h 0 W/m 2,0 km/h (1 Bft)
13.11.2013 05:00 1,7 C 90 % 1028,4 hPa 0,0 l/m W 0,00 h 0 W/m 1,2 km/h (1 Bft)
13.11.2013 06:00 1,6 C 91 % 1028,8 hPa 0,0 l/m N 0,00 h 0 W/m 0,0 km/h (0 Bft)
13.11.2013 07:00 1,7 C 91 % 1029,1 hPa 0,0 l/m N 0,00 h 11 W/m 0,1 km/h (0 Bft)
13.11.2013 08:00 1,9 C 91 % 1029,4 hPa 0,0 l/m W-NW 0,00 h 35 W/m 2,3 km/h (1 Bft)
13.11.2013 09:00 2,4 C 91 % 1029,9 hPa 0,0 l/m N-NO 0,00 h 61 W/m 5,6 km/h (1 Bft)
13.11.2013 10:00 3,1 C 89 % 1030,1 hPa 0,0 l/m NO 0,00 h 103 W/m 8,8 km/h (2 Bft)
13.11.2013 11:00 3,4 C 89 % 1029,8 hPa 0,0 l/m NO 0,00 h 111 W/m 10,3 km/h (2 Bft)
13.11.2013 12:00 4,2 C 87 % 1029,7 hPa 0,0 l/m NO 0,00 h 130 W/m 13,0 km/h (3 Bft)
13.11.2013 13:00 4,3 C 86 % 1029,3 hPa 0,0 l/m O-NO 0,00 h 83 W/m 12,5 km/h (3 Bft)
13.11.2013 14:00 4,5 C 85 % 1028,8 hPa 0,0 l/m O-NO 0,00 h 115 W/m 15,8 km/h (3 Bft)
13.11.2013 15:00 4,3 C 86 % 1028,6 hPa 0,0 l/m O-NO 0,00 h 29 W/m 14,4 km/h (3 Bft)
13.11.2013 16:00 4,1 C 87 % 1028,6 hPa 0,0 l/m O-NO 0,00 h 7 W/m 13,6 km/h (3 Bft)
13.11.2013 17:00 3,8 C 88 % 1028,5 hPa 0,0 l/m O-NO 0,00 h 0 W/m 15,7 km/h (3 Bft)
13.11.2013 18:00 3,7 C 89 % 1028,3 hPa 0,0 l/m O-NO 0,00 h 0 W/m 15,3 km/h (3 Bft)
13.11.2013 19:00 3,7 C 89 % 1028,0 hPa 0,0 l/m O-NO 0,00 h 0 W/m 15,3 km/h (3 Bft)
13.11.2013 20:00 3,6 C 90 % 1027,6 hPa 0,0 l/m O-NO 0,00 h 0 W/m 11,3 km/h (2 Bft)
13.11.2013 21:00 3,6 C 91 % 1027,2 hPa 0,0 l/m O-NO 0,00 h 0 W/m 13,0 km/h (3 Bft)
13.11.2013 22:00 3,7 C 89 % 1026,6 hPa 0,0 l/m O 0,00 h 0 W/m 17,4 km/h (3 Bft)
13.11.2013 23:00 3,6 C 88 % 1025,9 hPa 0,0 l/m O 0,00 h 0 W/m 17,2 km/h (3 Bft)
14.11.2013 00:00 3,5 C 87 % 1025,1 hPa 0,0 l/m O-SO 0,00 h 0 W/m 17,6 km/h (3 Bft)
14.11.2013 01:00 3,4 C 85 % 1024,2 hPa 0,0 l/m O-NO 0,00 h 0 W/m 12,1 km/h (2 Bft)
14.11.2013 02:00 3,3 C 86 % 1023,6 hPa 0,0 l/m O 0,00 h 0 W/m 7,5 km/h (2 Bft)
14.11.2013 03:00 3,2 C 87 % 1022,8 hPa 0,0 l/m O 0,00 h 0 W/m 2,7 km/h (1 Bft)
14.11.2013 04:00 3,0 C 86 % 1022,4 hPa 0,0 l/m O 0,00 h 0 W/m 5,1 km/h (1 Bft)
14.11.2013 05:00 2,8 C 86 % 1021,9 hPa 0,0 l/m O 0,00 h 0 W/m 2,8 km/h (1 Bft)
14.11.2013 06:00 2,7 C 86 % 1021,8 hPa 0,0 l/m O 0,00 h 0 W/m 1,7 km/h (1 Bft)
14.11.2013 07:00 2,7 C 87 % 1021,8 hPa 0,0 l/m N 0,00 h 5 W/m 1,7 km/h (1 Bft)
14.11.2013 08:00 2,6 C 88 % 1021,7 hPa 0,0 l/m O 0,00 h 9 W/m 6,0 km/h (2 Bft)
14.11.2013 09:00 2,8 C 89 % 1021,5 hPa 0,0 l/m W-SW 0,00 h 28 W/m 8,3 km/h (2 Bft)
14.11.2013 10:00 3,1 C 90 % 1021,3 hPa 0,0 l/m W-SW 0,00 h 38 W/m 9,9 km/h (2 Bft)
14.11.2013 11:00 3,1 C 92 % 1020,9 hPa 0,0 l/m W-SW 0,00 h 26 W/m 9,8 km/h (2 Bft)
14.11.2013 12:00 3,0 C 93 % 1020,4 hPa 0,0 l/m W-SW 0,00 h 35 W/m 11,8 km/h (2 Bft)
14.11.2013 13:00 3,1 C 94 % 1020,0 hPa 0,0 l/m W-SW 0,00 h 44 W/m 12,5 km/h (3 Bft)
14.11.2013 14:00 3,6 C 92 % 1019,6 hPa 0,0 l/m W-SW 0,00 h 47 W/m 9,9 km/h (2 Bft)
14.11.2013 15:00 3,9 C 89 % 1019,5 hPa 0,0 l/m W-SW 0,00 h 16 W/m 11,6 km/h (2 Bft)
14.11.2013 16:00 3,8 C 88 % 1019,3 hPa 0,0 l/m W-SW 0,00 h 10 W/m 7,9 km/h (2 Bft)
14.11.2013 17:00 3,7 C 87 % 1019,3 hPa 0,0 l/m W 0,00 h 0 W/m 8,4 km/h (2 Bft)
14.11.2013 18:00 3,6 C 87 % 1019,7 hPa 0,0 l/m W 0,00 h 0 W/m 6,4 km/h (2 Bft)
14.11.2013 19:00 3,4 C 87 % 1019,7 hPa 0,0 l/m W 0,00 h 0 W/m 2,1 km/h (1 Bft)
14.11.2013 20:00 3,3 C 88 % 1019,6 hPa 0,0 l/m N 0,00 h 0 W/m 0,5 km/h (0 Bft)
14.11.2013 21:00 3,2 C 89 % 1019,3 hPa 0,0 l/m N 0,00 h 0 W/m 2,7 km/h (1 Bft)
14.11.2013 22:00 2,9 C 88 % 1019,1 hPa 0,0 l/m W 0,00 h 0 W/m 1,9 km/h (1 Bft)
14.11.2013 23:00 2,8 C 89 % 1019,0 hPa 0,0 l/m N 0,00 h 0 W/m 0,0 km/h (0 Bft)
15.11.2013 00:00 2,6 C 89 % 1018,9 hPa 0,0 l/m N 0,00 h 0 W/m 1,1 km/h (0 Bft)
15.11.2013 01:00 2,3 C 89 % 1018,7 hPa 0,0 l/m W 0,00 h 0 W/m 3,7 km/h (1 Bft)
15.11.2013 02:00 2,3 C 89 % 1019,1 hPa 0,0 l/m O-NO 0,00 h 0 W/m 4,7 km/h (1 Bft)
15.11.2013 03:00 2,1 C 87 % 1019,1 hPa 0,0 l/m NO 0,00 h 0 W/m 5,1 km/h (1 Bft)
15.11.2013 04:00 1,9 C 89 % 1019,3 hPa 0,0 l/m N-NO 0,00 h 0 W/m 7,6 km/h (2 Bft)
15.11.2013 05:00 1,7 C 91 % 1019,5 hPa 0,0 l/m N-NO 0,00 h 0 W/m 9,5 km/h (2 Bft)
15.11.2013 06:00 1,5 C 93 % 1019,7 hPa 0,0 l/m O-NO 0,00 h 0 W/m 12,5 km/h (3 Bft)
15.11.2013 07:00 1,6 C 94 % 1019,7 hPa 0,0 l/m O-NO 0,00 h 5 W/m 15,4 km/h (3 Bft)
15.11.2013 08:00 1,7 C 94 % 1020,0 hPa 0,0 l/m O-NO 0,00 h 16 W/m 15,6 km/h (3 Bft)
15.11.2013 09:00 2,1 C 93 % 1020,2 hPa 0,0 l/m O-NO 0,00 h 32 W/m 16,8 km/h (3 Bft)
15.11.2013 10:00 2,3 C 91 % 1020,5 hPa 0,0 l/m NO 0,00 h 32 W/m 20,0 km/h (4 Bft)
15.11.2013 11:00 2,6 C 89 % 1020,8 hPa 0,0 l/m O 0,00 h 40 W/m 20,8 km/h (4 Bft)
15.11.2013 12:00 2,9 C 89 % 1021,1 hPa 0,0 l/m NO 0,00 h 34 W/m 17,3 km/h (3 Bft)
15.11.2013 13:00 3,1 C 87 % 1021,5 hPa 0,0 l/m NO 0,00 h 41 W/m 21,9 km/h (4 Bft)
15.11.2013 14:00 3,0 C 88 % 1021,8 hPa 0,0 l/m O-NO 0,00 h 23 W/m 21,8 km/h (4 Bft)
15.11.2013 15:00 2,8 C 88 % 1022,3 hPa 0,0 l/m NO 0,00 h 14 W/m 20,6 km/h (4 Bft)
15.11.2013 16:00 2,6 C 88 % 1022,8 hPa 0,0 l/m O 0,00 h 5 W/m 22,8 km/h (4 Bft)
15.11.2013 17:00 2,4 C 89 % 1023,5 hPa 0,0 l/m O-NO 0,00 h 0 W/m 20,0 km/h (4 Bft)
15.11.2013 18:00 2,4 C 91 % 1024,4 hPa 0,0 l/m NO 0,00 h 0 W/m 16,8 km/h (3 Bft)
15.11.2013 19:00 2,2 C 93 % 1025,5 hPa 0,0 l/m O-NO 0,00 h 0 W/m 13,4 km/h (3 Bft)
15.11.2013 20:00 2,2 C 95 % 1025,8 hPa 0,0 l/m NO 0,00 h 0 W/m 13,2 km/h (3 Bft)
15.11.2013 21:00 2,2 C 96 % 1026,6 hPa 0,2 l/m O-NO 0,00 h 0 W/m 12,1 km/h (2 Bft)
15.11.2013 22:00 2,3 C 96 % 1026,1 hPa 0,0 l/m O-NO 0,00 h 0 W/m 8,3 km/h (2 Bft)
15.11.2013 23:00 2,3 C 96 % 1026,4 hPa 0,0 l/m O-NO 0,00 h 0 W/m 6,1 km/h (2 Bft)
16.11.2013 00:00 2,5 C 96 % 1026,6 hPa 0,0 l/m O-NO 0,00 h 0 W/m 3,9 km/h (1 Bft)
16.11.2013 01:00 2,6 C 96 % 1026,7 hPa 0,0 l/m O-NO 0,00 h 0 W/m 5,3 km/h (1 Bft)
16.11.2013 02:00 2,5 C 96 % 1027,2 hPa 0,0 l/m O-NO 0,00 h 0 W/m 7,6 km/h (2 Bft)
16.11.2013 03:00 2,5 C 97 % 1027,5 hPa 0,0 l/m NO 0,00 h 0 W/m 7,9 km/h (2 Bft)
16.11.2013 04:00 2,5 C 97 % 1027,7 hPa 0,0 l/m NO 0,00 h 0 W/m 5,2 km/h (1 Bft)
16.11.2013 05:00 2,6 C 97 % 1027,8 hPa 0,2 l/m NO 0,00 h 0 W/m 5,7 km/h (1 Bft)
16.11.2013 06:00 2,6 C 97 % 1028,2 hPa 0,0 l/m NO 0,00 h 0 W/m 5,9 km/h (2 Bft)
16.11.2013 07:00 2,7 C 97 % 1028,7 hPa 0,0 l/m O-NO 0,00 h 0 W/m 12,5 km/h (3 Bft)
16.11.2013 08:00 2,8 C 97 % 1028,9 hPa 0,0 l/m O 0,00 h 7 W/m 11,4 km/h (2 Bft)
16.11.2013 09:00 2,9 C 96 % 1028,8 hPa 0,0 l/m O 0,00 h 16 W/m 14,0 km/h (3 Bft)
16.11.2013 10:00 3,1 C 96 % 1028,7 hPa 0,0 l/m O-SO 0,00 h 27 W/m 14,1 km/h (3 Bft)
16.11.2013 11:00 3,4 C 96 % 1028,3 hPa 0,0 l/m O 0,00 h 30 W/m 12,6 km/h (3 Bft)
16.11.2013 12:00 3,7 C 95 % 1027,6 hPa 0,0 l/m O 0,00 h 36 W/m 14,1 km/h (3 Bft)
16.11.2013 13:00 3,8 C 94 % 1026,8 hPa 0,0 l/m O 0,00 h 31 W/m 13,3 km/h (3 Bft)
16.11.2013 14:00 3,9 C 95 % 1026,1 hPa 0,0 l/m O-NO 0,00 h 18 W/m 12,5 km/h (3 Bft)
16.11.2013 15:00 3,8 C 95 % 1025,5 hPa 0,0 l/m O-NO 0,00 h 9 W/m 13,3 km/h (3 Bft)
16.11.2013 16:00 3,7 C 95 % 1025,2 hPa 0,0 l/m O-NO 0,00 h 5 W/m 14,5 km/h (3 Bft)
16.11.2013 17:00 3,6 C 96 % 1025,2 hPa 0,0 l/m O-NO 0,00 h 0 W/m 15,3 km/h (3 Bft)
16.11.2013 18:00 3,5 C 96 % 1025,3 hPa 0,0 l/m O-NO 0,00 h 0 W/m 15,0 km/h (3 Bft)
16.11.2013 19:00 3,5 C 96 % 1025,2 hPa 0,0 l/m O-NO 0,00 h 0 W/m 12,0 km/h (2 Bft)
16.11.2013 20:00 3,4 C 97 % 1025,1 hPa 0,0 l/m O 0,00 h 0 W/m 11,4 km/h (2 Bft)
16.11.2013 21:00 3,4 C 97 % 1024,9 hPa 0,0 l/m O 0,00 h 0 W/m 9,1 km/h (2 Bft)
16.11.2013 22:00 3,3 C 97 % 1024,4 hPa 0,0 l/m O 0,00 h 0 W/m 10,9 km/h (2 Bft)
16.11.2013 23:00 3,3 C 97 % 1024,1 hPa 0,0 l/m O 0,00 h 0 W/m 7,2 km/h (2 Bft)
17.11.2013 00:00 3,3 C 97 % 1024,1 hPa 0,0 l/m O 0,00 h 0 W/m 8,1 km/h (2 Bft)
17.11.2013 01:00 3,4 C 97 % 1024,1 hPa 0,2 l/m O-NO 0,00 h 0 W/m 6,3 km/h (2 Bft)
17.11.2013 02:00 3,3 C 97 % 1023,8 hPa 0,0 l/m O-NO 0,00 h 0 W/m 5,2 km/h (1 Bft)
17.11.2013 03:00 3,3 C 97 % 1023,3 hPa 0,0 l/m O-NO 0,00 h 0 W/m 5,6 km/h (1 Bft)
17.11.2013 04:00 3,3 C 97 % 1023,0 hPa 0,0 l/m O-NO 0,00 h 0 W/m 4,0 km/h (1 Bft)
17.11.2013 05:00 3,3 C 97 % 1022,6 hPa 0,2 l/m O-NO 0,00 h 0 W/m 3,7 km/h (1 Bft)
17.11.2013 06:00 3,2 C 97 % 1022,4 hPa 0,0 l/m O-NO 0,00 h 0 W/m 6,4 km/h (2 Bft)
17.11.2013 07:00 2,9 C 97 % 1022,4 hPa 0,0 l/m O 0,00 h 5 W/m 9,7 km/h (2 Bft)
17.11.2013 08:00 2,9 C 96 % 1022,5 hPa 0,0 l/m O-SO 0,00 h 11 W/m 9,5 km/h (2 Bft)
17.11.2013 09:00 2,9 C 95 % 1022,6 hPa 0,0 l/m O 0,00 h 21 W/m 11,3 km/h (2 Bft)
17.11.2013 10:00 3,1 C 95 % 1022,5 hPa 0,0 l/m O 0,00 h 29 W/m 8,0 km/h (2 Bft)
17.11.2013 11:00 3,2 C 95 % 1022,2 hPa 0,0 l/m O-NO 0,00 h 38 W/m 7,2 km/h (2 Bft)
17.11.2013 12:00 3,3 C 95 % 1021,3 hPa 0,0 l/m O-NO 0,00 h 34 W/m 6,7 km/h (2 Bft)
17.11.2013 13:00 3,4 C 95 % 1020,5 hPa 0,0 l/m O-NO 0,00 h 29 W/m 5,2 km/h (1 Bft)
17.11.2013 14:00 3,4 C 95 % 1020,0 hPa 0,0 l/m O-NO 0,00 h 18 W/m 5,2 km/h (1 Bft)
17.11.2013 15:00 3,3 C 95 % 1020,0 hPa 0,0 l/m O 0,00 h 11 W/m 4,5 km/h (1 Bft)
17.11.2013 16:00 3,3 C 95 % 1019,6 hPa 0,0 l/m N 0,00 h 6 W/m 2,3 km/h (1 Bft)
17.11.2013 17:00 3,2 C 95 % 1019,3 hPa 0,0 l/m O 0,00 h 0 W/m 2,4 km/h (1 Bft)
17.11.2013 18:00 3,2 C 95 % 1019,0 hPa 0,0 l/m O 0,00 h 0 W/m 3,2 km/h (1 Bft)
17.11.2013 19:00 3,2 C 94 % 1018,9 hPa 0,0 l/m O-SO 0,00 h 0 W/m 3,2 km/h (1 Bft)
17.11.2013 20:00 3,2 C 94 % 1018,9 hPa 0,0 l/m SO 0,00 h 0 W/m 4,5 km/h (1 Bft)
17.11.2013 21:00 3,0 C 94 % 1018,8 hPa 0,0 l/m SW 0,00 h 0 W/m 8,6 km/h (2 Bft)
17.11.2013 22:00 2,8 C 94 % 1018,5 hPa 0,0 l/m W-SW 0,00 h 0 W/m 8,6 km/h (2 Bft)
17.11.2013 23:00 2,8 C 95 % 1018,0 hPa 0,0 l/m SW 0,00 h 0 W/m 9,3 km/h (2 Bft)
Min-Datum _ 12.11.13 12.11.13 17.11.13 - - - - 11.11.13
_ Min-Zeit 00:55 13:05 23:50 - - - - 06:55
Minimum _ 0,2 C 83 % 1017,8 hPa - - - - 0,0 km/h (0 Bft)
Max-Datum _ 11.11.13 11.11.13 11.11.13 11.11.13 - 11.11.13 13.11.13 15.11.13
_ Max-Zeit 15:20 08:25 17:40 07:35 - 00:00 12:20 16:05
Maximum _ 4,8 C 100 % 1030,4 hPa 0,2 l/m - 0,00 h 179 W/m 32,2 km/h
O (5 Bft)
Durchschnitt _ 2,8 C 92 % 1024,6 hPa #1,2 l/m O-NO #0 min. 36 W/m 8,2 km/h (2 Bft)